| time (UTC) | temp F | wind direction | speed MPH | gust MPH | rain 1hr in | rain 24hr in | rain mn in | humidity % | barometer mb |
| 20260831003112 | 60 | 0 | 0.0 | 0.0 | 0.01 | 0.23 | 0.23 | 93 | 1005.1 |
| 20260831001611 | 60 | 0 | 0.0 | 0.0 | 0.01 | 0.23 | 0.23 | 93 | 1005.4 |
| 20260831000109 | 60 | 0 | 0.0 | 0.0 | 0.00 | 0.22 | 0.22 | 92 | 1005.4 |
| 20260830234607 | 60 | 0 | 0.0 | 0.0 | 0.00 | 0.22 | 0.22 | 92 | 1005.6 |
| 20260830233104 | 60 | 217 | 0.0 | 3.0 | 0.00 | 0.22 | 0.22 | 92 | 1005.7 |
| 20260830231608 | 60 | 217 | 0.0 | 3.0 | 0.00 | 0.22 | 0.22 | 92 | 1005.8 |
| 20260830230114 | 60 | 217 | 2.0 | 4.0 | 0.00 | 0.22 | 0.22 | 92 | 1005.8 |
| 20260830224611 | 61 | 217 | 1.0 | 7.0 | 0.00 | 0.22 | 0.22 | 92 | 1006.0 |
| 20260830223105 | 61 | 219 | 3.0 | 6.0 | 0.00 | 0.22 | 0.22 | 92 | 1006.0 |
| 20260830221604 | 62 | 185 | 3.0 | 6.0 | 0.00 | 0.22 | 0.22 | 92 | 1006.1 |
| 20260830220129 | 62 | 199 | 4.0 | 7.0 | 0.01 | 0.22 | 0.22 | 93 | 1006.2 |
| 20260830214608 | 61 | 198 | 5.0 | 8.0 | 0.01 | 0.22 | 0.22 | 93 | 1006.3 |
| 20260830213108 | 62 | 184 | 4.0 | 7.0 | 0.01 | 0.22 | 0.22 | 94 | 1006.5 |
| 20260830211606 | 62 | 193 | 6.0 | 9.0 | 0.01 | 0.22 | 0.22 | 94 | 1006.6 |
| 20260830210108 | 62 | 189 | 5.0 | 11.0 | 0.01 | 0.21 | 0.21 | 94 | 1006.6 |
| 20260830204607 | 61 | 181 | 5.0 | 8.0 | 0.01 | 0.21 | 0.21 | 95 | 1006.5 |
| 20260830203124 | 61 | 161 | 6.0 | 12.0 | 0.01 | 0.21 | 0.21 | 94 | 1006.7 |
| 20260830201607 | 61 | 168 | 5.0 | 9.0 | 0.01 | 0.21 | 0.21 | 95 | 1006.7 |
| 20260830200106 | 61 | 153 | 5.0 | 9.0 | 0.00 | 0.20 | 0.20 | 95 | 1006.7 |
| 20260830194608 | 60 | 139 | 4.0 | 7.0 | 0.00 | 0.20 | 0.20 | 95 | 1006.9 |
| 20260830193110 | 60 | 166 | 5.0 | 10.0 | 0.00 | 0.20 | 0.20 | 95 | 1006.9 |
| 20260830191607 | 61 | 152 | 5.0 | 11.0 | 0.00 | 0.20 | 0.20 | 95 | 1007.0 |
| 20260830190107 | 61 | 110 | 6.0 | 10.0 | 0.00 | 0.20 | 0.20 | 96 | 1006.8 |
| 20260830184605 | 61 | 126 | 5.0 | 8.0 | 0.00 | 0.20 | 0.20 | 96 | 1006.8 |
| 20260830183124 | 60 | 168 | 5.0 | 10.0 | 0.00 | 0.20 | 0.20 | 96 | 1006.8 |
| 20260830181628 | 60 | 188 | 5.0 | 11.0 | 0.00 | 0.20 | 0.20 | 96 | 1007.0 |
| 20260830180115 | 59 | 170 | 6.0 | 8.0 | 0.00 | 0.20 | 0.20 | 96 | 1007.0 |
| 20260830174607 | 59 | 193 | 5.0 | 8.0 | 0.00 | 0.20 | 0.20 | 96 | 1006.9 |
| 20260830173150 | 59 | 164 | 3.0 | 5.0 | 0.00 | 0.20 | 0.20 | 96 | 1006.9 |
| 20260830171619 | 58 | 198 | 1.0 | 5.0 | 0.00 | 0.20 | 0.20 | 96 | 1006.9 |
| 20260830170114 | 58 | 207 | 2.0 | 7.0 | 0.00 | 0.20 | 0.20 | 96 | 1006.8 |
| 20260830164611 | 58 | 206 | 3.0 | 8.0 | 0.01 | 0.20 | 0.20 | 96 | 1007.0 |
| 20260830163127 | 58 | 233 | 2.0 | 12.0 | 0.01 | 0.20 | 0.20 | 95 | 1007.0 |
| 20260830161636 | 59 | 247 | 7.0 | 11.0 | 0.01 | 0.20 | 0.20 | 96 | 1007.2 |
| 20260830160128 | 59 | 141 | 3.0 | 7.0 | 0.02 | 0.20 | 0.20 | 96 | 1006.5 |
| 20260830154618 | 59 | 152 | 2.0 | 4.0 | 0.01 | 0.19 | 0.19 | 96 | 1006.7 |
| 20260830153128 | 58 | 125 | 4.0 | 7.0 | 0.01 | 0.19 | 0.19 | 96 | 1007.0 |
| 20260830151629 | 57 | 0 | 0.0 | 3.0 | 0.01 | 0.19 | 0.19 | 95 | 1007.0 |
| 20260830150134 | 57 | 0 | 0.0 | 5.0 | 0.00 | 0.18 | 0.18 | 95 | 1007.2 |
| 20260830144631 | 57 | 190 | 2.0 | 6.0 | 0.00 | 0.18 | 0.18 | 95 | 1007.5 |
| 20260830143107 | 56 | 217 | 1.0 | 5.0 | 0.00 | 0.18 | 0.18 | 95 | 1007.5 |
| 20260830141607 | 56 | 0 | 0.0 | 0.0 | 0.00 | 0.18 | 0.18 | 95 | 1007.2 |
| 20260830140112 | 56 | 0 | 0.0 | 2.0 | 0.00 | 0.18 | 0.18 | 95 | 1007.4 |
| 20260830134616 | 56 | 0 | 0.0 | 4.0 | 0.00 | 0.18 | 0.18 | 95 | 1007.8 |
| 20260830133108 | 56 | 0 | 0.0 | 0.0 | 0.00 | 0.18 | 0.18 | 95 | 1007.8 |
| 20260830131617 | 55 | 0 | 0.0 | 0.0 | 0.00 | 0.18 | 0.18 | 94 | 1007.5 |
| 20260830130113 | 56 | 0 | 0.0 | 0.0 | 0.00 | 0.18 | 0.18 | 94 | 1007.5 |
| 20260830124605 | 55 | 0 | 0.0 | 0.0 | 0.01 | 0.18 | 0.18 | 94 | 1007.3 |
| 20260830123107 | 55 | 0 | 0.0 | 0.0 | 0.01 | 0.18 | 0.18 | 94 | 1007.6 |
| 20260830121606 | 56 | 0 | 0.0 | 1.0 | 0.01 | 0.18 | 0.18 | 93 | 1007.1 |
| 20260830120105 | 56 | 0 | 0.0 | 0.0 | 0.01 | 0.18 | 0.18 | 93 | 1007.1 |
| 20260830114605 | 56 | 0 | 0.0 | 2.0 | 0.00 | 0.17 | 0.17 | 93 | 1006.9 |
| 20260830113111 | 56 | 0 | 1.0 | 4.0 | 0.00 | 0.17 | 0.17 | 93 | 1006.9 |
| 20260830111607 | 56 | 0 | 0.0 | 3.0 | 0.00 | 0.17 | 0.17 | 93 | 1006.9 |
| 20260830110140 | 57 | 203 | 1.0 | 3.0 | 0.00 | 0.17 | 0.17 | 93 | 1007.0 |
| 20260830104606 | 57 | 0 | 1.0 | 5.0 | 0.00 | 0.17 | 0.17 | 93 | 1007.2 |
| 20260830103108 | 57 | 203 | 3.0 | 5.0 | 0.00 | 0.17 | 0.17 | 93 | 1007.2 |
| 20260830101608 | 57 | 0 | 2.0 | 4.0 | 0.00 | 0.17 | 0.17 | 93 | 1006.9 |
| 20260830100106 | 58 | 227 | 2.0 | 14.0 | 0.00 | 0.17 | 0.17 | 92 | 1006.8 |
| 20260830094616 | 58 | 220 | 4.0 | 8.0 | 0.00 | 0.17 | 0.17 | 91 | 1006.4 |
| 20260830093139 | 58 | 108 | 4.0 | 8.0 | 0.00 | 0.17 | 0.17 | 90 | 1006.0 |
| 20260830091605 | 58 | 103 | 6.0 | 9.0 | 0.00 | 0.17 | 0.17 | 90 | 1006.1 |
| 20260830090106 | 59 | 102 | 5.0 | 9.0 | 0.00 | 0.17 | 0.17 | 89 | 1005.8 |
| 20260830084607 | 59 | 16 | 4.0 | 10.0 | 0.01 | 0.17 | 0.17 | 89 | 1005.8 |
| 20260830083107 | 59 | 13 | 6.0 | 12.0 | 0.05 | 0.17 | 0.17 | 89 | 1005.9 |
| 20260830081610 | 59 | 341 | 4.0 | 11.0 | 0.13 | 0.17 | 0.17 | 90 | 1006.4 |
| 20260830080106 | 59 | 304 | 4.0 | 11.0 | 0.17 | 0.17 | 0.17 | 90 | 1006.9 |
| 20260830074706 | 59 | 312 | 5.0 | 8.0 | 0.16 | 0.16 | 0.16 | 89 | 1007.7 |
| 20260830073116 | 59 | 206 | 9.0 | 17.0 | 0.12 | 0.12 | 0.12 | 88 | 1008.7 |
| 20260830071634 | 61 | 214 | 9.0 | 15.0 | 0.04 | 0.04 | 0.04 | 84 | 1009.1 |
| 20260830070109 | 65 | 234 | 15.0 | 24.0 | 0.00 | 0.00 | 0.00 | 73 | 1008.0 |
| 20260830064606 | 64 | 185 | 7.0 | 13.0 | 0.00 | 0.00 | 0.00 | 73 | 1007.5 |
| 20260830063106 | 63 | 141 | 9.0 | 15.0 | 0.00 | 0.00 | 0.00 | 74 | 1006.6 |
| 20260830061614 | 63 | 135 | 9.0 | 13.0 | 0.00 | 0.00 | 0.00 | 74 | 1006.7 |
| 20260830060108 | 63 | 131 | 9.0 | 15.0 | 0.00 | 0.00 | 0.00 | 74 | 1006.8 |
| 20260830054609 | 62 | 144 | 11.0 | 16.0 | 0.00 | 0.00 | 0.00 | 75 | 1007.1 |
| 20260830053108 | 62 | 154 | 9.0 | 15.0 | 0.00 | 0.00 | 0.00 | 75 | 1007.2 |
| 20260830051620 | 62 | 123 | 9.0 | 15.0 | 0.00 | 0.00 | 0.00 | 74 | 1007.2 |
| 20260830050112 | 62 | 130 | 8.0 | 13.0 | 0.00 | 0.00 | 0.00 | 74 | 1007.4 |
| 20260830044604 | 62 | 122 | 8.0 | 13.0 | 0.00 | 0.00 | 0.00 | 75 | 1007.4 |
| 20260830043120 | 61 | 114 | 9.0 | 14.0 | 0.00 | 0.00 | 0.00 | 74 | 1007.5 |
| 20260830040114 | 61 | 152 | 10.0 | 16.0 | 0.00 | 0.00 | 0.00 | 74 | 1007.5 |
| 20260830034609 | 61 | 143 | 8.0 | 13.0 | 0.00 | 0.00 | 0.00 | 74 | 1007.4 |
| 20260830033105 | 61 | 120 | 9.0 | 12.0 | 0.00 | 0.00 | 0.00 | 74 | 1007.2 |
| 20260830031605 | 61 | 129 | 7.0 | 11.0 | 0.00 | 0.00 | 0.00 | 73 | 1007.2 |
| 20260830030109 | 61 | 143 | 8.0 | 11.0 | 0.00 | 0.00 | 0.00 | 72 | 1007.3 |
| 20260830024609 | 62 | 129 | 6.0 | 10.0 | 0.00 | 0.00 | 0.00 | 70 | 1007.3 |
| 20260830023120 | 63 | 124 | 6.0 | 10.0 | 0.00 | 0.00 | 0.00 | 68 | 1007.5 |
| 20260830021610 | 65 | 121 | 4.0 | 8.0 | 0.00 | 0.00 | 0.00 | 65 | 1007.4 |
| 20260830020116 | 67 | 117 | 4.0 | 7.0 | 0.00 | 0.00 | 0.00 | 61 | 1007.4 |
| 20260830014609 | 69 | 110 | 4.0 | 7.0 | 0.00 | 0.00 | 0.00 | 58 | 1007.4 |
| 20260830013108 | 71 | 119 | 5.0 | 8.0 | 0.00 | 0.00 | 0.00 | 55 | 1007.4 |
| 20260830011610 | 73 | 125 | 5.0 | 8.0 | 0.00 | 0.00 | 0.00 | 52 | 1007.2 |
| 20260830010141 | 76 | 121 | 6.0 | 11.0 | 0.00 | 0.00 | 0.00 | 47 | 1007.2 |
| 20260830004608 | 78 | 120 | 7.0 | 12.0 | 0.00 | 0.00 | 0.00 | 44 | 1007.2 |